User: anonymous   Login
Location: Louisville
(33.0010°N, 82.4110°W)
Time: 23:27:31
(UTC-04:00)
Language:

Hubble Space Telescope - Orbit

View from above orbital plane
View from above orbital plane
View from above satellite
View from above satellite

Ground track
Ground track

The orbit data is extracted from the following two-line orbital elements,

1 20580U 90037B   19076.89094907  .00000455  00000-0  16786-4 0  9999
2 20580  28.4692 105.5623 0002575 200.8606 163.2031 15.09188722386850
Epoch (UTC): 17 March 2019 21:22:58
Eccentricity: 0.0002575
inclination: 28.4692°
perigee height: 537 km
apogee height: 540 km
right ascension of ascending node: 105.5623°
argument of perigee: 200.8606°
revolutions per day: 15.09188722
mean anomaly at epoch: 163.2031°
orbit number at epoch: 38685

The dashed part of the orbit path shows where the satellite is in the earth's shadow,  

DLR